User: anonymous   Login
Location: Caltech
(34.1382°N, 118.1253°W)
Time: 18:35:15
(UTC-08:00)
Language:

SL-08 R/B - Orbit

View from above orbital plane
View from above orbital plane
View from above satellite
View from above satellite

Ground track
Ground track

The orbit data is extracted from the following two-line orbital elements,

1 27561U 02054C   18052.91969999 +.00000037 +00000-0 +19152-4 0  9991
2 27561 098.2885 189.4870 0047251 122.7384 237.8381 14.55656088808530
Epoch (UTC): 21 February 2018 22:04:22
Eccentricity: 0.0047251
inclination: 98.2885°
perigee height: 674 km
apogee height: 741 km
right ascension of ascending node: 189.4870°
argument of perigee: 122.7384°
revolutions per day: 14.55656088
mean anomaly at epoch: 237.8381°
orbit number at epoch: 80853

The dashed part of the orbit path shows where the satellite is in the earth's shadow,  

DLR